Time,TemperatureF,DewpointF,PressureIn,WindDirection,WindDirectionDegrees,WindSpeedMPH,WindSpeedGustMPH,Humidity,HourlyPrecipIn,Conditions,Clouds,dailyrainin,SoftwareType,DateUTC
2013-03-20 00:02:00,25.0,10.0,-100.00,North,2,14.0,-999.0,52,0.00,,,-99.99,,2013-03-20 08:02:00,
2013-03-20 00:12:00,25.0,10.0,-100.00,North,2,14.0,-999.0,52,0.00,,,-99.99,,2013-03-20 08:12:00,
2013-03-20 00:22:00,25.0,10.0,-100.00,North,2,14.0,-999.0,52,0.00,,,-99.99,,2013-03-20 08:22:00,
2013-03-20 00:30:00,25.0,8.0,-100.00,North,358,12.0,-999.0,50,0.00,,,-99.99,,2013-03-20 08:30:00,
2013-03-20 00:52:00,25.0,8.0,-100.00,North,358,12.0,-999.0,50,0.00,,,-99.99,,2013-03-20 08:52:00,
2013-03-20 01:02:00,25.0,8.0,-100.00,North,358,12.0,-999.0,50,0.00,,,-99.99,,2013-03-20 09:02:00,
2013-03-20 01:12:00,25.0,8.0,-100.00,North,358,12.0,-999.0,50,0.00,,,-99.99,,2013-03-20 09:12:00,
2013-03-20 01:22:00,25.0,8.0,-100.00,North,358,12.0,-999.0,50,0.00,,,-99.99,,2013-03-20 09:22:00,
2013-03-20 01:30:00,24.0,4.0,-100.00,North,2,17.0,-999.0,42,0.00,,,-99.99,,2013-03-20 09:30:00,
2013-03-20 01:53:00,24.0,4.0,-100.00,North,2,17.0,-999.0,42,0.00,,,-99.99,,2013-03-20 09:53:00,
2013-03-20 02:03:00,24.0,4.0,-100.00,North,2,17.0,-999.0,42,0.00,,,-99.99,,2013-03-20 10:03:00,
2013-03-20 02:12:00,24.0,4.0,-100.00,North,2,17.0,-999.0,42,0.00,,,-99.99,,2013-03-20 10:12:00,
2013-03-20 02:22:00,24.0,4.0,-100.00,North,2,17.0,-999.0,42,0.00,,,-99.99,,2013-03-20 10:22:00,
2013-03-20 02:30:00,23.0,5.0,-100.00,North,8,20.0,-999.0,45,0.00,,,-99.99,,2013-03-20 10:30:00,
2013-03-20 02:53:00,23.0,5.0,-100.00,North,8,20.0,-999.0,45,0.00,,,-99.99,,2013-03-20 10:53:00,
2013-03-20 03:02:00,23.0,5.0,-100.00,North,8,20.0,-999.0,45,0.00,,,-99.99,,2013-03-20 11:02:00,
2013-03-20 03:12:00,23.0,5.0,-100.00,North,8,20.0,-999.0,45,0.00,,,-99.99,,2013-03-20 11:12:00,
2013-03-20 03:22:00,23.0,5.0,-100.00,North,8,20.0,-999.0,45,0.00,,,-99.99,,2013-03-20 11:22:00,
2013-03-20 03:30:00,22.0,6.0,-100.00,NNE,18,22.0,-999.0,51,0.00,,,-99.99,,2013-03-20 11:30:00,
2013-03-20 03:52:00,22.0,6.0,-100.00,NNE,18,22.0,-999.0,51,0.00,,,-99.99,,2013-03-20 11:52:00,
2013-03-20 04:02:00,22.0,6.0,-100.00,NNE,18,22.0,-999.0,51,0.00,,,-99.99,,2013-03-20 12:02:00,
2013-03-20 04:12:00,22.0,6.0,-100.00,NNE,18,22.0,-999.0,51,0.00,,,-99.99,,2013-03-20 12:12:00,
2013-03-20 04:22:00,22.0,6.0,-100.00,NNE,18,22.0,-999.0,51,0.00,,,-99.99,,2013-03-20 12:22:00,
2013-03-20 04:30:00,21.0,-99.9,-100.00,North,7,17.0,-999.0,56,0.00,,,-99.99,,2013-03-20 12:30:00,
2013-03-20 04:53:00,21.0,-99.9,-100.00,North,7,17.0,-999.0,56,0.00,,,-99.99,,2013-03-20 12:53:00,
2013-03-20 05:03:00,21.0,-99.9,-100.00,North,7,17.0,-999.0,56,0.00,,,-99.99,,2013-03-20 13:03:00,
2013-03-20 05:13:00,21.0,-99.9,-100.00,North,7,17.0,-999.0,56,0.00,,,-99.99,,2013-03-20 13:13:00,
2013-03-20 05:22:00,21.0,-99.9,-100.00,North,7,17.0,-999.0,56,0.00,,,-99.99,,2013-03-20 13:22:00,
2013-03-20 05:30:00,21.0,-99.9,-100.00,NNE,17,18.0,-999.0,57,0.00,,,-99.99,,2013-03-20 13:30:00,
2013-03-20 05:53:00,21.0,-99.9,-100.00,NNE,17,18.0,-999.0,57,0.00,,,-99.99,,2013-03-20 13:53:00,
2013-03-20 06:03:00,21.0,-99.9,-100.00,NNE,17,18.0,-999.0,57,0.00,,,-99.99,,2013-03-20 14:03:00,
2013-03-20 06:12:00,21.0,-99.9,-100.00,NNE,17,18.0,-999.0,57,0.00,,,-99.99,,2013-03-20 14:12:00,
2013-03-20 06:23:00,21.0,-99.9,-100.00,NNE,17,18.0,-999.0,57,0.00,,,-99.99,,2013-03-20 14:23:00,
2013-03-20 06:30:00,20.0,-99.9,-100.00,NNE,20,18.0,-999.0,58,0.00,,,-99.99,,2013-03-20 14:30:00,
2013-03-20 06:52:00,20.0,8.0,-100.00,NNE,20,18.0,-999.0,58,0.00,,,-99.99,,2013-03-20 14:52:00,
2013-03-20 07:03:00,20.0,-99.9,-100.00,NNE,20,18.0,-999.0,58,0.00,,,-99.99,,2013-03-20 15:03:00,
2013-03-20 07:13:00,20.0,-99.9,-100.00,NNE,20,18.0,-999.0,58,0.00,,,-99.99,,2013-03-20 15:13:00,
2013-03-20 07:22:00,20.0,-99.9,-100.00,NNE,20,18.0,-999.0,58,0.00,,,-99.99,,2013-03-20 15:22:00,
2013-03-20 07:30:00,20.0,-99.9,-100.00,NNE,18,15.0,18.0,58,0.00,,,-99.99,,2013-03-20 15:30:00,
2013-03-20 07:53:00,20.0,8.0,-100.00,NNE,18,15.0,18.0,58,0.00,,,-99.99,,2013-03-20 15:53:00,
2013-03-20 08:03:00,20.0,-99.9,-100.00,NNE,18,15.0,18.0,58,0.00,,,-99.99,,2013-03-20 16:03:00,
2013-03-20 08:13:00,20.0,-99.9,-100.00,NNE,18,15.0,18.0,58,0.00,,,-99.99,,2013-03-20 16:13:00,
2013-03-20 08:23:00,20.0,-99.9,-100.00,NNE,18,15.0,18.0,58,0.00,,,-99.99,,2013-03-20 16:23:00,
2013-03-20 08:30:00,20.0,4.0,-100.00,NNE,19,18.0,21.0,50,0.00,,,-99.99,,2013-03-20 16:30:00,
2013-03-20 08:53:00,20.0,4.0,-100.00,NNE,19,18.0,21.0,50,0.00,,,-99.99,,2013-03-20 16:53:00,
2013-03-20 09:03:00,20.0,4.0,-100.00,NNE,19,18.0,21.0,50,0.00,,,-99.99,,2013-03-20 17:03:00,
2013-03-20 09:12:00,20.0,4.0,-100.00,NNE,19,18.0,21.0,50,0.00,,,-99.99,,2013-03-20 17:12:00,
2013-03-20 09:21:00,20.0,4.0,-100.00,NNE,19,18.0,21.0,50,0.00,,,-99.99,,2013-03-20 17:21:00,
2013-03-20 09:30:00,21.0,4.0,-100.00,NNE,16,16.0,20.0,48,0.00,,,-99.99,,2013-03-20 17:30:00,
2013-03-20 09:53:00,21.0,4.0,-100.00,NNE,16,16.0,20.0,48,0.00,,,-99.99,,2013-03-20 17:53:00,
2013-03-20 10:12:00,21.0,4.0,-100.00,NNE,16,16.0,20.0,48,0.00,,,-99.99,,2013-03-20 18:12:00,
2013-03-20 10:22:00,21.0,4.0,-100.00,NNE,16,16.0,20.0,48,0.00,,,-99.99,,2013-03-20 18:22:00,
2013-03-20 10:30:00,21.0,5.0,-100.00,NNE,29,12.0,15.0,48,0.00,,,-99.99,,2013-03-20 18:30:00,
2013-03-20 10:52:00,21.0,5.0,-100.00,NNE,29,12.0,15.0,48,0.00,,,-99.99,,2013-03-20 18:52:00,
2013-03-20 11:02:00,21.0,5.0,-100.00,NNE,29,12.0,15.0,48,0.00,,,-99.99,,2013-03-20 19:02:00,
2013-03-20 11:12:00,21.0,5.0,-100.00,NNE,29,12.0,15.0,48,0.00,,,-99.99,,2013-03-20 19:12:00,
2013-03-20 11:22:00,21.0,5.0,-100.00,NNE,29,12.0,15.0,48,0.00,,,-99.99,,2013-03-20 19:22:00,
2013-03-20 11:30:00,21.0,2.0,-100.00,ENE,71,12.0,17.0,44,0.00,,,-99.99,,2013-03-20 19:30:00,
2013-03-20 11:53:00,21.0,2.0,-100.00,ENE,71,12.0,17.0,44,0.00,,,-99.99,,2013-03-20 19:53:00,
2013-03-20 12:02:00,21.0,2.0,-100.00,ENE,71,12.0,17.0,44,0.00,,,-99.99,,2013-03-20 20:02:00,
2013-03-20 12:12:00,21.0,2.0,-100.00,ENE,71,12.0,17.0,44,0.00,,,-99.99,,2013-03-20 20:12:00,
2013-03-20 12:22:00,21.0,2.0,-100.00,ENE,71,12.0,17.0,44,0.00,,,-99.99,,2013-03-20 20:22:00,
2013-03-20 12:30:00,23.0,1.0,-100.00,ENE,58,10.0,13.0,39,0.00,,,-99.99,,2013-03-20 20:30:00,
2013-03-20 12:53:00,23.0,1.0,-100.00,ENE,58,10.0,13.0,39,0.00,,,-99.99,,2013-03-20 20:53:00,
2013-03-20 13:02:00,23.0,1.0,-100.00,ENE,58,10.0,13.0,39,0.00,,,-99.99,,2013-03-20 21:02:00,
2013-03-20 13:12:00,23.0,1.0,-100.00,ENE,58,10.0,13.0,39,0.00,,,-99.99,,2013-03-20 21:12:00,
2013-03-20 13:22:00,23.0,1.0,-100.00,ENE,58,10.0,13.0,39,0.00,,,-99.99,,2013-03-20 21:22:00,
2013-03-20 13:30:00,23.0,0.0,-100.00,ENE,73,8.0,11.0,36,0.00,,,-99.99,,2013-03-20 21:30:00,
2013-03-20 13:53:00,23.0,0.0,-100.00,ENE,73,8.0,11.0,36,0.00,,,-99.99,,2013-03-20 21:53:00,
2013-03-20 14:03:00,23.0,0.0,-100.00,ENE,73,8.0,11.0,36,0.00,,,-99.99,,2013-03-20 22:03:00,
2013-03-20 14:12:00,23.0,0.0,-100.00,ENE,73,8.0,11.0,36,0.00,,,-99.99,,2013-03-20 22:12:00,
2013-03-20 14:23:00,23.0,0.0,-100.00,ENE,73,8.0,11.0,36,0.00,,,-99.99,,2013-03-20 22:23:00,
2013-03-20 14:30:00,25.0,0.0,-100.00,ENE,74,5.0,9.0,33,0.00,,,-99.99,,2013-03-20 22:30:00,
2013-03-20 14:52:00,25.0,0.0,-100.00,ENE,74,5.0,9.0,33,0.00,,,-99.99,,2013-03-20 22:52:00,
2013-03-20 15:02:00,25.0,0.0,-100.00,ENE,74,5.0,9.0,33,0.00,,,-99.99,,2013-03-20 23:02:00,
2013-03-20 15:12:00,25.0,0.0,-100.00,ENE,74,5.0,9.0,33,0.00,,,-99.99,,2013-03-20 23:12:00,
2013-03-20 15:22:00,25.0,0.0,-100.00,ENE,74,5.0,9.0,33,0.00,,,-99.99,,2013-03-20 23:22:00,
2013-03-20 15:30:00,28.0,2.0,-100.00,SW,228,4.0,6.0,33,0.00,,,-99.99,,2013-03-20 23:30:00,
2013-03-20 15:53:00,28.0,2.0,-100.00,SW,228,4.0,6.0,33,0.00,,,-99.99,,2013-03-20 23:53:00,
2013-03-20 16:02:00,28.0,2.0,-100.00,SW,228,4.0,6.0,33,0.00,,,-99.99,,2013-03-21 00:02:00,
2013-03-20 16:12:00,28.0,2.0,-100.00,SW,228,4.0,6.0,33,0.00,,,-99.99,,2013-03-21 00:12:00,
2013-03-20 16:22:00,28.0,2.0,-100.00,SW,228,4.0,6.0,33,0.00,,,-99.99,,2013-03-21 00:22:00,
2013-03-20 16:52:00,28.0,6.0,-100.00,WSW,252,9.0,14.0,39,0.00,,,-99.99,,2013-03-21 00:52:00,
2013-03-20 17:02:00,28.0,6.0,-100.00,WSW,252,9.0,14.0,39,0.00,,,-99.99,,2013-03-21 01:02:00,
2013-03-20 17:12:00,28.0,6.0,-100.00,WSW,252,9.0,14.0,39,0.00,,,-99.99,,2013-03-21 01:12:00,
2013-03-20 17:22:00,28.0,6.0,-100.00,WSW,252,9.0,14.0,39,0.00,,,-99.99,,2013-03-21 01:22:00,
2013-03-20 17:30:00,27.0,8.0,-100.00,West,263,11.0,17.0,45,0.00,,,-99.99,,2013-03-21 01:30:00,
2013-03-20 17:53:00,27.0,8.0,-100.00,West,263,11.0,17.0,45,0.00,,,-99.99,,2013-03-21 01:53:00,
2013-03-20 18:02:00,27.0,8.0,-100.00,West,263,11.0,17.0,45,0.00,,,-99.99,,2013-03-21 02:02:00,
2013-03-20 18:12:00,27.0,8.0,-100.00,West,263,11.0,17.0,45,0.00,,,-99.99,,2013-03-21 02:12:00,
2013-03-20 18:22:00,27.0,8.0,-100.00,West,263,11.0,17.0,45,0.00,,,-99.99,,2013-03-21 02:22:00,
2013-03-20 18:30:00,27.0,10.0,-100.00,West,271,3.0,5.0,49,0.00,,,-99.99,,2013-03-21 02:30:00,
2013-03-20 19:02:00,27.0,10.0,-100.00,West,271,3.0,5.0,49,0.00,,,-99.99,,2013-03-21 03:02:00,
2013-03-20 19:12:00,27.0,10.0,-100.00,West,271,3.0,5.0,49,0.00,,,-99.99,,2013-03-21 03:12:00,
2013-03-20 19:22:00,27.0,10.0,-100.00,West,271,3.0,5.0,49,0.00,,,-99.99,,2013-03-21 03:22:00,
2013-03-20 19:30:00,27.0,12.0,-100.00,SSE,150,2.0,3.0,54,0.00,,,-99.99,,2013-03-21 03:30:00,
2013-03-20 19:53:00,27.0,12.0,-100.00,SSE,150,2.0,3.0,54,0.00,,,-99.99,,2013-03-21 03:53:00,
2013-03-20 20:02:00,27.0,12.0,-100.00,SSE,150,2.0,3.0,54,0.00,,,-99.99,,2013-03-21 04:02:00,
2013-03-20 20:12:00,27.0,12.0,-100.00,SSE,150,2.0,3.0,54,0.00,,,-99.99,,2013-03-21 04:12:00,
2013-03-20 20:22:00,27.0,12.0,-100.00,SSE,150,2.0,3.0,54,0.00,,,-99.99,,2013-03-21 04:22:00,
2013-03-20 20:30:00,28.0,14.0,-100.00,WNW,284,11.0,19.0,55,0.00,,,-99.99,,2013-03-21 04:30:00,
2013-03-20 20:53:00,28.0,14.0,-100.00,WNW,284,11.0,19.0,55,0.00,,,-99.99,,2013-03-21 04:53:00,
2013-03-20 21:02:00,28.0,14.0,-100.00,WNW,284,11.0,19.0,55,0.00,,,-99.99,,2013-03-21 05:02:00,
2013-03-20 21:12:00,28.0,14.0,-100.00,WNW,284,11.0,19.0,55,0.00,,,-99.99,,2013-03-21 05:12:00,
2013-03-20 21:22:00,28.0,14.0,-100.00,WNW,284,11.0,19.0,55,0.00,,,-99.99,,2013-03-21 05:22:00,
2013-03-20 21:30:00,28.0,15.0,-100.00,West,271,15.0,25.0,57,0.00,,,-99.99,,2013-03-21 05:30:00,
2013-03-20 21:52:00,28.0,15.0,-100.00,West,271,15.0,25.0,57,0.00,,,-99.99,,2013-03-21 05:52:00,
2013-03-20 22:02:00,28.0,15.0,-100.00,West,271,15.0,25.0,57,0.00,,,-99.99,,2013-03-21 06:02:00,
2013-03-20 22:12:00,28.0,15.0,-100.00,West,271,15.0,25.0,57,0.00,,,-99.99,,2013-03-21 06:12:00,
2013-03-20 22:22:00,28.0,15.0,-100.00,West,271,15.0,25.0,57,0.00,,,-99.99,,2013-03-21 06:22:00,
2013-03-20 22:30:00,27.0,14.0,-100.00,West,272,14.0,21.0,57,0.00,,,-99.99,,2013-03-21 06:30:00,
2013-03-20 22:52:00,27.0,14.0,-100.00,West,272,14.0,21.0,57,0.00,,,-99.99,,2013-03-21 06:52:00,
2013-03-20 23:02:00,27.0,14.0,-100.00,West,272,14.0,21.0,57,0.00,,,-99.99,,2013-03-21 07:02:00,
2013-03-20 23:12:00,27.0,14.0,-100.00,West,272,14.0,21.0,57,0.00,,,-99.99,,2013-03-21 07:12:00,
2013-03-20 23:21:00,27.0,14.0,-100.00,West,272,14.0,21.0,57,0.00,,,-99.99,,2013-03-21 07:21:00,
2013-03-20 23:30:00,26.0,10.0,-100.00,NNW,333,11.0,17.0,49,0.00,,,-99.99,,2013-03-21 07:30:00,
2013-03-20 23:52:00,26.0,10.0,-100.00,NNW,333,11.0,17.0,49,0.00,,,-99.99,,2013-03-21 07:52:00,